Retour au catalogue

COSMOS 2251 DEB

ActifLEO
NORAD 33944·DEBRIS·🇷🇺 Russia

Lancé Jun 16, 1993 depuis Plesetsk Cosmodrome

Loading…

Prochains Passages (prochaines 24 heures)

TLE

FraisSource: Space-Track

Époque: Sep 14, 2026, 11:34 UTC

1 33944U 93036EZ  26257.48260808  .00000374  00000-0  12394-3 0  9998
2 33944  74.0406 161.3999 0113559 194.3848 340.9078 14.37767701919907

Suivez COSMOS 2251 DEB en temps réel avec AllMySat

Download on the App Store